| time (UTC) | temp F | wind direction | speed knots | gust knots | rain 1hr in | rain 24hr in | rain mn in | humidity % | barometer mb |
| 20260504214532 | 70 | 173 | 10.4 | 17.4 | 0.00 | 0.01 | 0.00 | 54 | 1004.8 |
| 20260504213031 | 69 | 215 | 11.3 | 19.1 | 0.00 | 0.01 | 0.00 | 55 | 1004.9 |
| 20260504211532 | 71 | 203 | 7.8 | 13.9 | 0.00 | 0.01 | 0.00 | 52 | 1004.7 |
| 20260504210018 | 70 | 240 | 7.8 | 16.5 | 0.00 | 0.01 | 0.00 | 52 | 1004.6 |
| 20260504204523 | 69 | 241 | 9.6 | 20.9 | 0.00 | 0.01 | 0.00 | 54 | 1005.0 |
| 20260504203032 | 70 | 191 | 13.9 | 19.1 | 0.00 | 0.01 | 0.00 | 53 | 1005.6 |
| 20260504201529 | 69 | 234 | 10.4 | 18.2 | 0.00 | 0.01 | 0.00 | 54 | 1005.7 |
| 20260504200016 | 69 | 186 | 8.7 | 16.5 | 0.00 | 0.01 | 0.00 | 57 | 1005.7 |
| 20260504194532 | 69 | 216 | 10.4 | 20.0 | 0.00 | 0.01 | 0.00 | 57 | 1006.0 |
| 20260504193023 | 68 | 206 | 10.4 | 17.4 | 0.00 | 0.01 | 0.00 | 57 | 1006.0 |
| 20260504191519 | 69 | 178 | 12.2 | 22.6 | 0.00 | 0.01 | 0.00 | 57 | 1006.2 |
| 20260504190131 | 69 | 240 | 11.3 | 22.6 | 0.00 | 0.01 | 0.00 | 57 | 1006.3 |
| 20260504184509 | 68 | 192 | 11.3 | 19.1 | 0.00 | 0.01 | 0.00 | 57 | 1006.5 |
| 20260504183008 | 69 | 221 | 9.6 | 20.0 | 0.00 | 0.01 | 0.00 | 57 | 1006.5 |
| 20260504181505 | 70 | 195 | 9.6 | 20.0 | 0.00 | 0.01 | 0.00 | 56 | 1006.2 |
| 20260504180214 | 70 | 193 | 13.0 | 22.6 | 0.00 | 0.01 | 0.00 | 54 | 1005.9 |
| 20260504174551 | 70 | 211 | 11.3 | 18.2 | 0.00 | 0.01 | 0.00 | 53 | 1005.8 |
| 20260504173108 | 70 | 216 | 13.0 | 17.4 | 0.00 | 0.01 | 0.00 | 55 | 1005.9 |
| 20260504171557 | 69 | 223 | 7.8 | 19.1 | 0.00 | 0.01 | 0.00 | 56 | 1006.1 |
| 20260504140132 | 58 | 171 | 7.8 | 14.8 | 0.00 | 0.01 | 0.00 | 64 | 1007.8 |
| 20260504120108 | 52 | 169 | 5.2 | 14.8 | 0.00 | 0.01 | 0.00 | 66 | 1008.3 |
| 20260504081600 | 0 | 0.0 | 0.0 | 0.00 | 0.01 | 0.00 | 1009.1 | ||
| 20260504080104 | 0 | 0.0 | 0.0 | 0.00 | 0.01 | 0.00 | 1009.3 | ||
| 20260504050142 | 53 | 157 | 4.3 | 11.3 | 0.00 | 0.01 | 0.00 | 57 | 1010.9 |
| 20260504044504 | 52 | 161 | 6.1 | 10.4 | 0.00 | 0.01 | 0.00 | 58 | 1011.1 |
| 20260504043007 | 52 | 163 | 6.1 | 7.8 | 0.00 | 0.01 | 0.00 | 60 | 1011.3 |
| 20260504041504 | 51 | 163 | 5.2 | 7.0 | 0.00 | 0.01 | 0.00 | 63 | 1011.5 |
| 20260504040109 | 50 | 149 | 5.2 | 7.8 | 0.00 | 0.01 | 0.00 | 67 | 1011.6 |
| 20260504034554 | 51 | 147 | 4.3 | 6.1 | 0.00 | 0.01 | 0.01 | 65 | 1011.8 |
| 20260504033058 | 51 | 131 | 3.5 | 6.1 | 0.00 | 0.01 | 0.01 | 65 | 1012.0 |
| 20260504031630 | 50 | 123 | 3.5 | 6.1 | 0.00 | 0.01 | 0.01 | 66 | 1012.1 |
| 20260504030106 | 50 | 135 | 2.6 | 6.1 | 0.00 | 0.01 | 0.01 | 68 | 1012.3 |
| 20260504024553 | 50 | 131 | 3.5 | 7.0 | 0.00 | 0.01 | 0.01 | 68 | 1012.4 |
| 20260504023054 | 50 | 147 | 3.5 | 7.0 | 0.00 | 0.01 | 0.01 | 69 | 1012.6 |
| 20260504021610 | 50 | 150 | 3.5 | 7.0 | 0.00 | 0.01 | 0.01 | 69 | 1012.5 |
| 20260504020105 | 49 | 154 | 2.6 | 7.0 | 0.00 | 0.01 | 0.01 | 70 | 1012.5 |
| 20260504014539 | 49 | 149 | 2.6 | 6.1 | 0.00 | 0.01 | 0.01 | 72 | 1012.5 |
| 20260504013041 | 48 | 145 | 0.9 | 3.5 | 0.00 | 0.01 | 0.01 | 74 | 1012.5 |
| 20260504011549 | 48 | 149 | 0.9 | 3.5 | 0.00 | 0.01 | 0.01 | 74 | 1012.6 |
| 20260504010046 | 48 | 138 | 0.9 | 4.3 | 0.00 | 0.01 | 0.01 | 75 | 1012.6 |
| 20260504004531 | 48 | 144 | 0.0 | 3.5 | 0.00 | 0.01 | 0.01 | 75 | 1012.7 |
| 20260504003031 | 48 | 143 | 0.0 | 2.6 | 0.00 | 0.01 | 0.01 | 74 | 1012.4 |
| 20260504001542 | 48 | 146 | 0.0 | 3.5 | 0.00 | 0.01 | 0.01 | 74 | 1012.5 |
| 20260504000018 | 48 | 121 | 0.9 | 4.3 | 0.00 | 0.01 | 0.01 | 75 | 1012.6 |
| 20260503234525 | 48 | 134 | 0.0 | 2.6 | 0.00 | 0.01 | 0.01 | 77 | 1012.6 |
| 20260503233024 | 48 | 138 | 0.9 | 4.3 | 0.00 | 0.01 | 0.01 | 77 | 1012.4 |
| 20260503231521 | 48 | 125 | 0.9 | 3.5 | 0.00 | 0.01 | 0.01 | 75 | 1012.8 |
| 20260503230128 | 48 | 131 | 0.9 | 3.5 | 0.00 | 0.01 | 0.01 | 76 | 1012.9 |
| 20260503224504 | 48 | 113 | 0.9 | 2.6 | 0.01 | 0.01 | 0.01 | 77 | 1013.4 |
| 20260503223012 | 48 | 120 | 0.0 | 1.7 | 0.01 | 0.01 | 0.01 | 77 | 1013.8 |
| 20260503221505 | 48 | 61 | 0.0 | 1.7 | 0.01 | 0.01 | 0.01 | 77 | 1014.4 |
| 20260503220107 | 48 | 60 | 1.7 | 2.6 | 0.01 | 0.01 | 0.01 | 75 | 1014.5 |